Year,Month,Day,Hour,Minute,Value (Times are PST for windspeed in km/hr)
2008,10,05,00,00,10.50
2008,10,05,00,01,8.90
2008,10,05,00,02,9.70
2008,10,05,00,03,10.00
2008,10,05,00,04,7.30
2008,10,05,00,05,7.00
2008,10,05,00,06,10.30
2008,10,05,00,07,6.20
2008,10,05,00,08,4.80
2008,10,05,00,09,7.20
2008,10,05,00,10,10.20
2008,10,05,00,11,6.80
2008,10,05,00,12,5.10
2008,10,05,00,13,4.30
2008,10,05,00,14,4.60
2008,10,05,00,15,5.40
2008,10,05,00,16,3.80
2008,10,05,00,17,5.00
2008,10,05,00,18,4.00
2008,10,05,00,19,7.60
2008,10,05,00,20,5.70
2008,10,05,00,21,7.00
2008,10,05,00,22,9.10
2008,10,05,00,23,6.50
2008,10,05,00,24,8.30
2008,10,05,00,25,7.90
2008,10,05,00,26,6.80
2008,10,05,00,27,9.80
2008,10,05,00,28,7.40
2008,10,05,00,29,8.40
2008,10,05,00,30,9.10
2008,10,05,00,31,10.80
2008,10,05,00,32,9.30
2008,10,05,00,33,8.60
2008,10,05,00,34,10.50
2008,10,05,00,35,10.80
2008,10,05,00,36,8.20
2008,10,05,00,37,5.90
2008,10,05,00,38,6.20
2008,10,05,00,39,4.20
2008,10,05,00,40,7.60
2008,10,05,00,41,6.40
2008,10,05,00,42,4.80
2008,10,05,00,43,6.70
2008,10,05,00,44,6.30
2008,10,05,00,45,4.00
2008,10,05,00,46,6.30
2008,10,05,00,47,5.10
2008,10,05,00,48,4.10
2008,10,05,00,49,3.90
2008,10,05,00,50,3.60
2008,10,05,00,51,5.10
2008,10,05,00,52,4.30
2008,10,05,00,53,4.60
2008,10,05,00,54,6.50
2008,10,05,00,55,2.80
2008,10,05,00,56,5.90
2008,10,05,00,57,3.50
2008,10,05,00,58,6.30
2008,10,05,00,59,4.00
2008,10,05,01,00,4.90
2008,10,05,01,01,3.00
2008,10,05,01,02,4.70
2008,10,05,01,03,4.90
2008,10,05,01,04,3.40
2008,10,05,01,05,6.20
2008,10,05,01,06,3.90
2008,10,05,01,07,5.10
2008,10,05,01,08,4.60
2008,10,05,01,09,3.00
2008,10,05,01,10,1.20
2008,10,05,01,11,0.60
2008,10,05,01,12,3.30
2008,10,05,01,13,0.50
2008,10,05,01,14,4.90
2008,10,05,01,15,2.50
2008,10,05,01,16,3.10
2008,10,05,01,17,2.20
2008,10,05,01,18,2.10
2008,10,05,01,19,2.40
2008,10,05,01,20,2.10
2008,10,05,01,21,1.30
2008,10,05,01,22,0.80
2008,10,05,01,23,1.30
2008,10,05,01,24,1.30
2008,10,05,01,25,0.90
2008,10,05,01,26,0.00
2008,10,05,01,27,0.20
2008,10,05,01,28,0.40
2008,10,05,01,29,0.10
2008,10,05,01,30,0.90
2008,10,05,01,31,0.30
2008,10,05,01,32,2.10
2008,10,05,01,33,4.20
2008,10,05,01,34,2.10
2008,10,05,01,35,5.00
2008,10,05,01,36,5.10
2008,10,05,01,37,4.50
2008,10,05,01,38,5.10
2008,10,05,01,39,7.40
2008,10,05,01,40,5.00
2008,10,05,01,41,4.50
2008,10,05,01,42,4.30
2008,10,05,01,43,5.20
2008,10,05,01,44,3.00
2008,10,05,01,45,5.40
2008,10,05,01,46,3.90
2008,10,05,01,47,2.90
2008,10,05,01,48,1.70
2008,10,05,01,49,3.10
2008,10,05,01,50,1.90
2008,10,05,01,51,0.60
2008,10,05,01,52,1.20
2008,10,05,01,53,0.20
2008,10,05,01,54,0.20
2008,10,05,01,55,4.10
2008,10,05,01,56,3.70
2008,10,05,01,57,0.30
2008,10,05,01,58,1.80
2008,10,05,01,59,3.00
2008,10,05,02,00,1.40
2008,10,05,02,01,2.20
2008,10,05,02,02,1.30
2008,10,05,02,03,1.80
2008,10,05,02,04,1.10
2008,10,05,02,05,3.10
2008,10,05,02,06,5.00
2008,10,05,02,07,5.60
2008,10,05,02,08,4.70
2008,10,05,02,09,1.70
2008,10,05,02,10,2.20
2008,10,05,02,11,0.80
2008,10,05,02,12,0.30
2008,10,05,02,13,0.90
2008,10,05,02,14,0.10
2008,10,05,02,15,2.10
2008,10,05,02,16,3.10
2008,10,05,02,17,1.50
2008,10,05,02,18,0.20
2008,10,05,02,19,0.00
2008,10,05,02,20,0.00
2008,10,05,02,21,1.70
2008,10,05,02,22,5.20
2008,10,05,02,23,5.00
2008,10,05,02,24,4.10
2008,10,05,02,25,2.10
2008,10,05,02,26,1.10
2008,10,05,02,27,0.00
2008,10,05,02,28,0.10
2008,10,05,02,29,0.70
2008,10,05,02,30,0.60
2008,10,05,02,31,0.80
2008,10,05,02,32,0.20
2008,10,05,02,33,1.20
2008,10,05,02,34,1.20
2008,10,05,02,35,0.60
2008,10,05,02,36,1.00
2008,10,05,02,37,3.70
2008,10,05,02,38,3.30
2008,10,05,02,39,3.20
2008,10,05,02,40,3.50
2008,10,05,02,41,5.40
2008,10,05,02,42,4.40
2008,10,05,02,43,6.00
2008,10,05,02,44,4.30
2008,10,05,02,45,2.10
2008,10,05,02,46,3.90
2008,10,05,02,47,3.90
2008,10,05,02,48,3.80
2008,10,05,02,49,4.60
2008,10,05,02,50,4.80
2008,10,05,02,51,3.00
2008,10,05,02,52,4.60
2008,10,05,02,53,4.10
2008,10,05,02,54,3.70
2008,10,05,02,55,2.90
2008,10,05,02,56,2.60
2008,10,05,02,57,3.70
2008,10,05,02,58,2.40
2008,10,05,02,59,4.90
2008,10,05,03,00,3.20
2008,10,05,03,01,4.30
2008,10,05,03,02,2.10
2008,10,05,03,03,3.90
2008,10,05,03,04,1.10
2008,10,05,03,05,1.80
2008,10,05,03,06,4.00
2008,10,05,03,07,4.90
2008,10,05,03,08,5.60
2008,10,05,03,09,4.80
2008,10,05,03,10,4.50
2008,10,05,03,11,5.50
2008,10,05,03,12,4.20
2008,10,05,03,13,1.50
2008,10,05,03,14,3.40
2008,10,05,03,15,3.40
2008,10,05,03,16,6.00
2008,10,05,03,17,4.00
2008,10,05,03,18,0.40
2008,10,05,03,19,2.10
2008,10,05,03,20,2.20
2008,10,05,03,21,2.70
2008,10,05,03,22,4.40
2008,10,05,03,23,4.80
2008,10,05,03,24,3.90
2008,10,05,03,25,2.50
2008,10,05,03,26,3.40
2008,10,05,03,27,4.80
2008,10,05,03,28,5.40
2008,10,05,03,29,2.90
2008,10,05,03,30,2.90
2008,10,05,03,31,3.10
2008,10,05,03,32,1.00
2008,10,05,03,33,2.50
2008,10,05,03,34,0.00
2008,10,05,03,35,0.20
2008,10,05,03,36,3.10
2008,10,05,03,37,1.00
2008,10,05,03,38,0.70
2008,10,05,03,39,0.20
2008,10,05,03,40,0.20
2008,10,05,03,41,0.50
2008,10,05,03,42,2.10
2008,10,05,03,43,2.90
2008,10,05,03,44,1.00
2008,10,05,03,45,3.90
2008,10,05,03,46,4.40
2008,10,05,03,47,5.10
2008,10,05,03,48,4.30
2008,10,05,03,49,3.20
2008,10,05,03,50,2.90
2008,10,05,03,51,4.20
2008,10,05,03,52,2.40
2008,10,05,03,53,3.40
2008,10,05,03,54,4.30
2008,10,05,03,55,3.50
2008,10,05,03,56,3.30
2008,10,05,03,57,2.10
2008,10,05,03,58,2.40
2008,10,05,03,59,3.50
2008,10,05,04,00,1.60
2008,10,05,04,01,1.90
2008,10,05,04,02,1.60
2008,10,05,04,03,3.20
2008,10,05,04,04,5.80
2008,10,05,04,05,1.20
2008,10,05,04,06,0.90
2008,10,05,04,07,0.90
2008,10,05,04,08,2.20
2008,10,05,04,09,2.20
2008,10,05,04,10,1.40
2008,10,05,04,11,0.40
2008,10,05,04,12,1.50
2008,10,05,04,13,2.10
2008,10,05,04,14,1.20
2008,10,05,04,15,3.60
2008,10,05,04,16,2.60
2008,10,05,04,17,1.40
2008,10,05,04,18,0.90
2008,10,05,04,19,0.90
2008,10,05,04,20,0.40
2008,10,05,04,21,0.80
2008,10,05,04,22,1.00
2008,10,05,04,23,0.60
2008,10,05,04,24,1.40
2008,10,05,04,25,0.00
2008,10,05,04,26,0.20
2008,10,05,04,27,0.00
2008,10,05,04,28,0.10
2008,10,05,04,29,0.00
2008,10,05,04,30,0.00
2008,10,05,04,31,0.30
2008,10,05,04,32,0.10
2008,10,05,04,33,0.10
2008,10,05,04,34,1.20
2008,10,05,04,35,1.20
2008,10,05,04,36,0.10
2008,10,05,04,37,0.10
2008,10,05,04,38,0.00
2008,10,05,04,39,0.40
2008,10,05,04,40,0.00
2008,10,05,04,41,0.00
2008,10,05,04,42,0.00
2008,10,05,04,43,0.00
2008,10,05,04,44,0.00
2008,10,05,04,45,0.00
2008,10,05,04,46,0.10
2008,10,05,04,47,0.00
2008,10,05,04,48,0.90
2008,10,05,04,49,0.00
2008,10,05,04,50,0.00
2008,10,05,04,51,0.00
2008,10,05,04,52,0.00
2008,10,05,04,53,0.00
2008,10,05,04,54,0.00
2008,10,05,04,55,0.00
2008,10,05,04,56,0.00
2008,10,05,04,57,0.00
2008,10,05,04,58,0.00
2008,10,05,04,59,0.00
2008,10,05,05,00,0.00
2008,10,05,05,01,0.00
2008,10,05,05,02,0.00
2008,10,05,05,03,0.00
2008,10,05,05,04,0.00
2008,10,05,05,05,0.00
2008,10,05,05,06,0.00
2008,10,05,05,07,0.00
2008,10,05,05,08,0.00
2008,10,05,05,09,0.00
2008,10,05,05,10,0.00
2008,10,05,05,11,0.00
2008,10,05,05,12,0.00
2008,10,05,05,13,0.00
2008,10,05,05,14,0.00
2008,10,05,05,15,0.00
2008,10,05,05,16,0.00
2008,10,05,05,17,0.00
2008,10,05,05,18,0.00
2008,10,05,05,19,0.00
2008,10,05,05,20,0.00
2008,10,05,05,21,0.00
2008,10,05,05,22,0.00
2008,10,05,05,23,0.00
2008,10,05,05,24,0.00
2008,10,05,05,25,0.00
2008,10,05,05,26,0.00
2008,10,05,05,27,0.00
2008,10,05,05,28,0.00
2008,10,05,05,29,0.00
2008,10,05,05,30,0.00
2008,10,05,05,31,0.00
2008,10,05,05,32,0.00
2008,10,05,05,33,0.00
2008,10,05,05,34,0.10
2008,10,05,05,35,0.00
2008,10,05,05,36,0.00
2008,10,05,05,37,0.00
2008,10,05,05,38,0.00
2008,10,05,05,39,0.00
2008,10,05,05,40,0.00
2008,10,05,05,41,0.00
2008,10,05,05,42,0.10
2008,10,05,05,43,1.30
2008,10,05,05,44,2.70
2008,10,05,05,45,2.40
2008,10,05,05,46,0.90
2008,10,05,05,47,0.10
2008,10,05,05,48,0.10
2008,10,05,05,49,0.00
2008,10,05,05,50,0.00
2008,10,05,05,51,0.00
2008,10,05,05,52,0.00
2008,10,05,05,53,0.00
2008,10,05,05,54,0.00
2008,10,05,05,55,0.00
2008,10,05,05,56,0.00
2008,10,05,05,57,0.00
2008,10,05,05,58,0.00
2008,10,05,05,59,0.10
2008,10,05,06,00,1.40
2008,10,05,06,01,2.30
2008,10,05,06,02,1.60
2008,10,05,06,03,0.90
2008,10,05,06,04,0.30
2008,10,05,06,05,0.00
2008,10,05,06,06,0.00
2008,10,05,06,07,0.00
2008,10,05,06,08,0.00
2008,10,05,06,09,0.00
2008,10,05,06,10,0.00
2008,10,05,06,11,0.00
2008,10,05,06,12,0.00
2008,10,05,06,13,0.90
2008,10,05,06,14,0.60
2008,10,05,06,15,0.00
2008,10,05,06,16,0.00
2008,10,05,06,17,0.00
2008,10,05,06,18,0.00
2008,10,05,06,19,0.00
2008,10,05,06,20,0.00
2008,10,05,06,21,0.00
2008,10,05,06,22,0.00
2008,10,05,06,23,0.00
2008,10,05,06,24,0.00
2008,10,05,06,25,0.00
2008,10,05,06,26,0.00
2008,10,05,06,27,0.00
2008,10,05,06,28,0.00
2008,10,05,06,29,0.00
2008,10,05,06,30,0.00
2008,10,05,06,31,0.00
2008,10,05,06,32,0.00
2008,10,05,06,33,0.00
2008,10,05,06,34,0.00
2008,10,05,06,35,0.00
2008,10,05,06,36,0.40
2008,10,05,06,37,1.50
2008,10,05,06,38,0.40
2008,10,05,06,39,0.00
2008,10,05,06,40,0.00
2008,10,05,06,41,0.00
2008,10,05,06,42,0.00
2008,10,05,06,43,0.00
2008,10,05,06,44,0.00
2008,10,05,06,45,0.00
2008,10,05,06,46,0.00
2008,10,05,06,47,0.00
2008,10,05,06,48,0.00
2008,10,05,06,49,0.00
2008,10,05,06,50,0.00
2008,10,05,06,51,0.00
2008,10,05,06,52,0.00
2008,10,05,06,53,0.00
2008,10,05,06,54,0.00
2008,10,05,06,55,0.00
2008,10,05,06,56,0.00
2008,10,05,06,57,0.00
2008,10,05,06,58,0.00
2008,10,05,06,59,0.00
2008,10,05,07,00,0.00
2008,10,05,07,01,0.00
2008,10,05,07,02,0.00
2008,10,05,07,03,0.00
2008,10,05,07,04,0.10
2008,10,05,07,05,0.60
2008,10,05,07,06,0.00
2008,10,05,07,07,0.30
2008,10,05,07,08,0.10
2008,10,05,07,09,0.00
2008,10,05,07,10,0.00
2008,10,05,07,11,0.00
2008,10,05,07,12,0.10
2008,10,05,07,13,0.40
2008,10,05,07,14,1.90
2008,10,05,07,15,1.00
2008,10,05,07,16,0.10
2008,10,05,07,17,0.00
2008,10,05,07,18,0.00
2008,10,05,07,19,0.00
2008,10,05,07,20,0.00
2008,10,05,07,21,0.00
2008,10,05,07,22,0.00
2008,10,05,07,23,8.90
2008,10,05,07,24,4.30
2008,10,05,07,25,6.10
2008,10,05,07,26,4.20
2008,10,05,07,27,4.30
2008,10,05,07,28,7.00
2008,10,05,07,29,6.30
2008,10,05,07,30,6.60
2008,10,05,07,31,5.50
2008,10,05,07,32,5.50
2008,10,05,07,33,4.20
2008,10,05,07,34,4.40
2008,10,05,07,35,6.40
2008,10,05,07,36,8.20
2008,10,05,07,37,9.50
2008,10,05,07,38,6.90
2008,10,05,07,39,7.90
2008,10,05,07,40,10.90
2008,10,05,07,41,9.60
2008,10,05,07,42,9.50
2008,10,05,07,43,8.00
2008,10,05,07,44,6.90
2008,10,05,07,45,7.10
2008,10,05,07,46,7.70
2008,10,05,07,47,5.40
2008,10,05,07,48,8.10
2008,10,05,07,49,4.10
2008,10,05,07,50,3.80
2008,10,05,07,51,1.20
2008,10,05,07,52,1.20
2008,10,05,07,53,0.70
2008,10,05,07,54,0.20
2008,10,05,07,55,0.60
2008,10,05,07,56,1.80
2008,10,05,07,57,3.10
2008,10,05,07,58,0.00
2008,10,05,07,59,0.60
2008,10,05,08,00,2.00
2008,10,05,08,01,2.00
2008,10,05,08,02,2.90
2008,10,05,08,03,0.60
2008,10,05,08,04,0.10
2008,10,05,08,05,0.30
2008,10,05,08,06,0.40
2008,10,05,08,07,2.70
2008,10,05,08,08,0.70
2008,10,05,08,09,1.90
2008,10,05,08,10,1.50
2008,10,05,08,11,1.90
2008,10,05,08,12,3.20
2008,10,05,08,13,3.70
2008,10,05,08,14,3.70
2008,10,05,08,15,2.90
2008,10,05,08,16,2.50
2008,10,05,08,17,3.90
2008,10,05,08,18,3.70
2008,10,05,08,19,2.40
2008,10,05,08,20,3.80
2008,10,05,08,21,1.90
2008,10,05,08,22,3.70
2008,10,05,08,23,3.30
2008,10,05,08,24,1.00
2008,10,05,08,25,0.20
2008,10,05,08,26,0.20
2008,10,05,08,27,1.40
2008,10,05,08,28,1.20
2008,10,05,08,29,1.50
2008,10,05,08,30,1.00
2008,10,05,08,31,0.10
2008,10,05,08,32,0.20
2008,10,05,08,33,0.00
2008,10,05,08,34,0.00
2008,10,05,08,35,0.40
2008,10,05,08,36,0.10
2008,10,05,08,37,0.00
2008,10,05,08,38,0.00
2008,10,05,08,39,0.00
2008,10,05,08,40,0.00
2008,10,05,08,41,0.00
2008,10,05,08,42,0.00
2008,10,05,08,43,0.00
2008,10,05,08,44,0.00
2008,10,05,08,45,0.10
2008,10,05,08,46,0.10
2008,10,05,08,47,0.00
2008,10,05,08,48,0.00
2008,10,05,08,49,0.00
2008,10,05,08,50,0.00
2008,10,05,08,51,0.00
2008,10,05,08,52,0.00
2008,10,05,08,53,0.00
2008,10,05,08,54,0.00
2008,10,05,08,55,0.00
2008,10,05,08,56,0.00
2008,10,05,08,57,0.00
2008,10,05,08,58,0.00
2008,10,05,08,59,0.00
2008,10,05,09,00,0.00
2008,10,05,09,01,0.00
2008,10,05,09,02,0.00
2008,10,05,09,03,0.00
2008,10,05,09,04,0.00
2008,10,05,09,05,0.00
2008,10,05,09,06,0.00
2008,10,05,09,07,0.00
2008,10,05,09,08,0.00
2008,10,05,09,09,0.00
2008,10,05,09,10,0.00
2008,10,05,09,11,0.00
2008,10,05,09,12,0.00
2008,10,05,09,13,0.00
2008,10,05,09,14,0.00
2008,10,05,09,15,0.10
2008,10,05,09,16,0.70
2008,10,05,09,17,0.80
2008,10,05,09,18,0.30
2008,10,05,09,19,2.40
2008,10,05,09,20,1.80
2008,10,05,09,21,2.60
2008,10,05,09,22,2.50
2008,10,05,09,23,2.10
2008,10,05,09,24,1.90
2008,10,05,09,25,1.70
2008,10,05,09,26,1.10
2008,10,05,09,27,0.80
2008,10,05,09,28,1.00
2008,10,05,09,29,2.00
2008,10,05,09,30,0.90
2008,10,05,09,31,2.00
2008,10,05,09,32,2.30
2008,10,05,09,33,1.50
2008,10,05,09,34,2.00
2008,10,05,09,35,3.30
2008,10,05,09,36,4.40
2008,10,05,09,37,3.90
2008,10,05,09,38,4.70
2008,10,05,09,39,4.20
2008,10,05,09,40,4.90
2008,10,05,09,41,4.10
2008,10,05,09,42,3.80
2008,10,05,09,43,2.90
2008,10,05,09,44,4.50
2008,10,05,09,45,4.80
2008,10,05,09,46,4.30
2008,10,05,09,47,3.60
2008,10,05,09,48,2.60
2008,10,05,09,49,0.70
2008,10,05,09,50,2.00
2008,10,05,09,51,1.00
2008,10,05,09,52,1.90
2008,10,05,09,53,2.20
2008,10,05,09,54,2.30
2008,10,05,09,55,0.60
2008,10,05,09,56,0.80
2008,10,05,09,57,2.00
2008,10,05,09,58,0.20
2008,10,05,09,59,0.20
2008,10,05,10,00,2.00
2008,10,05,10,01,0.00
2008,10,05,10,02,0.10
2008,10,05,10,03,0.90
2008,10,05,10,04,3.10
2008,10,05,10,05,5.70
2008,10,05,10,06,3.90
2008,10,05,10,07,3.90
2008,10,05,10,08,5.60
2008,10,05,10,09,6.90
2008,10,05,10,10,7.40
2008,10,05,10,11,3.30
2008,10,05,10,12,2.90
2008,10,05,10,13,3.30
2008,10,05,10,14,1.00
2008,10,05,10,15,0.90
2008,10,05,10,16,0.40
2008,10,05,10,17,6.60
2008,10,05,10,18,4.90
2008,10,05,10,19,1.70
2008,10,05,10,20,2.60
2008,10,05,10,21,1.70
2008,10,05,10,22,1.00
2008,10,05,10,23,0.60
2008,10,05,10,24,4.30
2008,10,05,10,25,1.20
2008,10,05,10,26,2.50
2008,10,05,10,27,3.10
2008,10,05,10,28,2.80
2008,10,05,10,29,1.90
2008,10,05,10,30,1.30
2008,10,05,10,31,4.70
2008,10,05,10,32,4.00
2008,10,05,10,33,2.90
2008,10,05,10,34,4.10
2008,10,05,10,35,5.70
2008,10,05,10,36,4.00
2008,10,05,10,37,4.90
2008,10,05,10,38,7.60
2008,10,05,10,39,4.40
2008,10,05,10,40,0.80
2008,10,05,10,41,4.20
2008,10,05,10,42,4.50
2008,10,05,10,43,3.40
2008,10,05,10,44,4.30
2008,10,05,10,45,3.70
2008,10,05,10,46,6.30
2008,10,05,10,47,6.80
2008,10,05,10,48,10.70
2008,10,05,10,49,12.70
2008,10,05,10,50,9.50
2008,10,05,10,51,6.00
2008,10,05,10,52,9.80
2008,10,05,10,53,10.80
2008,10,05,10,54,12.70
2008,10,05,10,55,10.70
2008,10,05,10,56,10.80
2008,10,05,10,57,6.40
2008,10,05,10,58,7.80
2008,10,05,10,59,8.90
2008,10,05,11,00,9.10
2008,10,05,11,01,5.60
2008,10,05,11,02,6.30
2008,10,05,11,03,9.10
2008,10,05,11,04,6.70
2008,10,05,11,05,8.30
2008,10,05,11,06,12.00
2008,10,05,11,07,13.20
2008,10,05,11,08,8.20
2008,10,05,11,09,8.40
2008,10,05,11,10,6.20
2008,10,05,11,11,7.50
2008,10,05,11,12,8.70
2008,10,05,11,13,9.90
2008,10,05,11,14,7.70
2008,10,05,11,15,11.00
2008,10,05,11,16,11.20
2008,10,05,11,17,10.60
2008,10,05,11,18,8.40
2008,10,05,11,19,9.90
2008,10,05,11,20,9.30
2008,10,05,11,21,9.90
2008,10,05,11,22,10.00
2008,10,05,11,23,8.70
2008,10,05,11,24,11.00
2008,10,05,11,25,11.50
2008,10,05,11,26,11.10
2008,10,05,11,27,9.50
2008,10,05,11,28,6.00
2008,10,05,11,29,10.70
2008,10,05,11,30,10.70
2008,10,05,11,31,13.40
2008,10,05,11,32,8.00
2008,10,05,11,33,6.70
2008,10,05,11,34,9.60
2008,10,05,11,35,7.60
2008,10,05,11,36,7.80
2008,10,05,11,37,2.80
2008,10,05,11,38,6.80
2008,10,05,11,39,8.00
2008,10,05,11,40,7.60
2008,10,05,11,41,7.90
2008,10,05,11,42,8.40
2008,10,05,11,43,7.70
2008,10,05,11,44,9.10
2008,10,05,11,45,7.50
2008,10,05,11,46,8.60
2008,10,05,11,47,6.80
2008,10,05,11,48,7.10
2008,10,05,11,49,5.10
2008,10,05,11,50,5.30
2008,10,05,11,51,7.50
2008,10,05,11,52,8.60
2008,10,05,11,53,11.60
2008,10,05,11,54,8.00
2008,10,05,11,55,10.50
2008,10,05,11,56,5.70
2008,10,05,11,57,7.80
2008,10,05,11,58,3.80
2008,10,05,11,59,7.00
2008,10,05,12,00,3.40
2008,10,05,12,01,2.00
2008,10,05,12,02,4.50
2008,10,05,12,03,9.10
2008,10,05,12,04,7.90
2008,10,05,12,05,8.60
2008,10,05,12,06,14.10
2008,10,05,12,07,9.10
2008,10,05,12,08,7.50
2008,10,05,12,09,8.50
2008,10,05,12,10,9.10
2008,10,05,12,11,8.70
2008,10,05,12,12,11.40
2008,10,05,12,13,8.10
2008,10,05,12,14,5.80
2008,10,05,12,15,8.70
2008,10,05,12,16,10.00
2008,10,05,12,17,9.40
2008,10,05,12,18,8.90
2008,10,05,12,19,9.60
2008,10,05,12,20,7.00
2008,10,05,12,21,11.20
2008,10,05,12,22,9.90
2008,10,05,12,23,4.00
2008,10,05,12,24,6.50
2008,10,05,12,25,7.10
2008,10,05,12,26,6.70
2008,10,05,12,27,7.90
2008,10,05,12,28,5.10
2008,10,05,12,29,5.20
2008,10,05,12,30,3.50
2008,10,05,12,31,7.30
2008,10,05,12,32,8.90
2008,10,05,12,33,11.40
2008,10,05,12,34,6.60
2008,10,05,12,35,3.80
2008,10,05,12,36,1.30
2008,10,05,12,37,7.20
2008,10,05,12,38,3.60
2008,10,05,12,39,4.80
2008,10,05,12,40,5.00
2008,10,05,12,41,6.90
2008,10,05,12,42,7.90
2008,10,05,12,43,4.60
2008,10,05,12,44,5.10
2008,10,05,12,45,2.60
2008,10,05,12,46,6.50
2008,10,05,12,47,5.50
2008,10,05,12,48,6.40
2008,10,05,12,49,6.70
2008,10,05,12,50,5.40
2008,10,05,12,51,3.20
2008,10,05,12,52,5.60
2008,10,05,12,53,6.40
2008,10,05,12,54,3.80
2008,10,05,12,55,5.80
2008,10,05,12,56,2.00
2008,10,05,12,57,4.40
2008,10,05,12,58,4.50
2008,10,05,12,59,6.80
2008,10,05,13,00,7.00
2008,10,05,13,01,7.90
2008,10,05,13,02,7.40
2008,10,05,13,03,4.40
2008,10,05,13,04,7.90
2008,10,05,13,05,7.70
2008,10,05,13,06,5.90
2008,10,05,13,07,3.40
2008,10,05,13,08,2.80
2008,10,05,13,09,3.20
2008,10,05,13,10,2.50
2008,10,05,13,11,6.50
2008,10,05,13,12,7.10
2008,10,05,13,13,5.40
2008,10,05,13,14,5.10
2008,10,05,13,15,5.70
2008,10,05,13,16,8.80
2008,10,05,13,17,8.80
2008,10,05,13,18,7.10
2008,10,05,13,19,7.30
2008,10,05,13,20,5.10
2008,10,05,13,21,7.60
2008,10,05,13,22,8.80
2008,10,05,13,23,3.20
2008,10,05,13,24,7.60
2008,10,05,13,25,6.90
2008,10,05,13,26,8.00
2008,10,05,13,27,4.20
2008,10,05,13,28,2.70
2008,10,05,13,29,3.30
2008,10,05,13,30,5.10
2008,10,05,13,31,6.00
2008,10,05,13,32,6.80
2008,10,05,13,33,6.30
2008,10,05,13,34,3.00
2008,10,05,13,35,8.00
2008,10,05,13,36,5.40
2008,10,05,13,37,8.50
2008,10,05,13,38,10.50
2008,10,05,13,39,6.40
2008,10,05,13,40,6.30
2008,10,05,13,41,11.00
2008,10,05,13,42,8.90
2008,10,05,13,43,7.00
2008,10,05,13,44,10.20
2008,10,05,13,45,8.00
2008,10,05,13,46,5.10
2008,10,05,13,47,8.90
2008,10,05,13,48,8.50
2008,10,05,13,49,6.60
2008,10,05,13,50,4.60
2008,10,05,13,51,7.20
2008,10,05,13,52,9.20
2008,10,05,13,53,6.10
2008,10,05,13,54,6.10
2008,10,05,13,55,7.40
2008,10,05,13,56,8.40
2008,10,05,13,57,5.80
2008,10,05,13,58,7.20
2008,10,05,13,59,8.70
2008,10,05,14,00,12.20
2008,10,05,14,01,12.40
2008,10,05,14,02,11.50
2008,10,05,14,03,7.00
2008,10,05,14,04,5.10
2008,10,05,14,05,6.90
2008,10,05,14,06,1.00
2008,10,05,14,07,1.20
2008,10,05,14,08,2.10
2008,10,05,14,09,7.50
2008,10,05,14,10,8.10
2008,10,05,14,11,14.60
2008,10,05,14,12,5.50
2008,10,05,14,13,6.20
2008,10,05,14,14,8.90
2008,10,05,14,15,15.00
2008,10,05,14,16,13.90
2008,10,05,14,17,11.30
2008,10,05,14,18,9.00
2008,10,05,14,19,12.60
2008,10,05,14,20,6.90
2008,10,05,14,21,9.30
2008,10,05,14,22,9.00
2008,10,05,14,23,5.20
2008,10,05,14,24,3.90
2008,10,05,14,25,7.20
2008,10,05,14,26,4.90
2008,10,05,14,27,5.80
2008,10,05,14,28,8.60
2008,10,05,14,29,10.30
2008,10,05,14,30,11.10
2008,10,05,14,31,5.80
2008,10,05,14,32,10.60
2008,10,05,14,33,9.40
2008,10,05,14,34,8.90
2008,10,05,14,35,9.40
2008,10,05,14,36,6.70
2008,10,05,14,37,11.70
2008,10,05,14,38,7.40
2008,10,05,14,39,6.40
2008,10,05,14,40,3.10
2008,10,05,14,41,11.90
2008,10,05,14,42,9.80
2008,10,05,14,43,9.10
2008,10,05,14,44,5.40
2008,10,05,14,45,7.40
2008,10,05,14,46,3.50
2008,10,05,14,47,8.20
2008,10,05,14,48,7.00
2008,10,05,14,49,10.10
2008,10,05,14,50,9.10
2008,10,05,14,51,7.80
2008,10,05,14,52,7.40
2008,10,05,14,53,6.40
2008,10,05,14,54,9.20
2008,10,05,14,55,11.00
2008,10,05,14,56,9.20
2008,10,05,14,57,8.80
2008,10,05,14,58,7.90
2008,10,05,14,59,8.40
2008,10,05,15,00,9.30
2008,10,05,15,01,8.70
2008,10,05,15,02,6.00
2008,10,05,15,03,8.10
2008,10,05,15,04,7.20
2008,10,05,15,05,8.80
2008,10,05,15,06,5.90
2008,10,05,15,07,1.40
2008,10,05,15,08,4.30
2008,10,05,15,09,10.20
2008,10,05,15,10,11.10
2008,10,05,15,11,10.10
2008,10,05,15,12,8.10
2008,10,05,15,13,6.80
2008,10,05,15,14,8.30
2008,10,05,15,15,9.00
2008,10,05,15,16,8.80
2008,10,05,15,17,10.00
2008,10,05,15,18,8.50
2008,10,05,15,19,5.50
2008,10,05,15,20,6.10
2008,10,05,15,21,6.60
2008,10,05,15,22,6.10
2008,10,05,15,23,7.10
2008,10,05,15,24,4.10
2008,10,05,15,25,5.00
2008,10,05,15,26,4.10
2008,10,05,15,27,6.20
2008,10,05,15,28,5.50
2008,10,05,15,29,7.60
2008,10,05,15,30,9.00
2008,10,05,15,31,4.90
2008,10,05,15,32,12.20
2008,10,05,15,33,7.20
2008,10,05,15,34,7.40
2008,10,05,15,35,8.20
2008,10,05,15,36,7.40
2008,10,05,15,37,5.30
2008,10,05,15,38,5.60
2008,10,05,15,39,10.30
2008,10,05,15,40,9.90
2008,10,05,15,41,5.80
2008,10,05,15,42,6.70
2008,10,05,15,43,8.80
2008,10,05,15,44,9.80
2008,10,05,15,45,4.50
2008,10,05,15,46,4.80
2008,10,05,15,47,1.00
2008,10,05,15,48,0.40
2008,10,05,15,49,2.50
2008,10,05,15,50,5.00
2008,10,05,15,51,4.70
2008,10,05,15,52,6.60
2008,10,05,15,53,4.10
2008,10,05,15,54,9.70
2008,10,05,15,55,11.40
2008,10,05,15,56,7.70
2008,10,05,15,57,9.00
2008,10,05,15,58,6.70
2008,10,05,15,59,5.90
2008,10,05,16,00,1.70
2008,10,05,16,01,2.10
2008,10,05,16,02,10.60
2008,10,05,16,03,8.00
2008,10,05,16,04,6.60
2008,10,05,16,05,5.70
2008,10,05,16,06,4.70
2008,10,05,16,07,2.80
2008,10,05,16,08,2.40
2008,10,05,16,09,0.20
2008,10,05,16,10,0.40
2008,10,05,16,11,2.80
2008,10,05,16,12,2.20
2008,10,05,16,13,3.60
2008,10,05,16,14,6.60
2008,10,05,16,15,2.80
2008,10,05,16,16,4.40
2008,10,05,16,17,4.40
2008,10,05,16,18,5.90
2008,10,05,16,19,4.80
2008,10,05,16,20,5.60
2008,10,05,16,21,0.80
2008,10,05,16,22,6.90
2008,10,05,16,23,4.50
2008,10,05,16,24,4.60
2008,10,05,16,25,6.30
2008,10,05,16,26,6.80
2008,10,05,16,27,4.30
2008,10,05,16,28,8.30
2008,10,05,16,29,8.60
2008,10,05,16,30,6.70
2008,10,05,16,31,7.90
2008,10,05,16,32,5.70
2008,10,05,16,33,7.40
2008,10,05,16,34,7.60
2008,10,05,16,35,7.10
2008,10,05,16,36,6.30
2008,10,05,16,37,6.00
2008,10,05,16,38,5.30
2008,10,05,16,39,4.00
2008,10,05,16,40,4.30
2008,10,05,16,41,1.70
2008,10,05,16,42,3.70
2008,10,05,16,43,4.40
2008,10,05,16,44,4.60
2008,10,05,16,45,1.80
2008,10,05,16,46,0.40
2008,10,05,16,47,0.60
2008,10,05,16,48,1.00
2008,10,05,16,49,0.30
2008,10,05,16,50,2.20
2008,10,05,16,51,2.40
2008,10,05,16,52,5.30
2008,10,05,16,53,3.90
2008,10,05,16,54,2.60
2008,10,05,16,55,0.50
2008,10,05,16,56,0.80
2008,10,05,16,57,1.80
2008,10,05,16,58,3.90
2008,10,05,16,59,1.90
2008,10,05,17,00,0.20
2008,10,05,17,01,0.60
2008,10,05,17,02,0.30
2008,10,05,17,03,3.70
2008,10,05,17,04,1.40
2008,10,05,17,05,1.60
2008,10,05,17,06,2.00
2008,10,05,17,07,1.90
2008,10,05,17,08,1.70
2008,10,05,17,09,1.30
2008,10,05,17,10,0.50
2008,10,05,17,11,0.00
2008,10,05,17,12,0.00
2008,10,05,17,13,1.40
2008,10,05,17,14,1.20
2008,10,05,17,15,0.00
2008,10,05,17,16,0.00
2008,10,05,17,17,1.10
2008,10,05,17,18,2.50
2008,10,05,17,19,0.20
2008,10,05,17,20,0.00
2008,10,05,17,21,0.50
2008,10,05,17,22,2.90
2008,10,05,17,23,4.60
2008,10,05,17,24,0.40
2008,10,05,17,25,1.50
2008,10,05,17,26,1.20
2008,10,05,17,27,0.30
2008,10,05,17,28,3.80
2008,10,05,17,29,5.80
2008,10,05,17,30,4.10
2008,10,05,17,31,2.50
2008,10,05,17,32,1.70
2008,10,05,17,33,4.00
2008,10,05,17,34,5.40
2008,10,05,17,35,2.90
2008,10,05,17,36,0.60
2008,10,05,17,37,1.90
2008,10,05,17,38,0.10
2008,10,05,17,39,0.10
2008,10,05,17,40,0.00
2008,10,05,17,41,0.00
2008,10,05,17,42,0.00
2008,10,05,17,43,0.00
2008,10,05,17,44,0.10
2008,10,05,17,45,3.00
2008,10,05,17,46,0.30
2008,10,05,17,47,0.00
2008,10,05,17,48,0.00
2008,10,05,17,49,0.00
2008,10,05,17,50,0.00
2008,10,05,17,51,0.00
2008,10,05,17,52,0.00
2008,10,05,17,53,0.00
2008,10,05,17,54,0.20
2008,10,05,17,55,0.10
2008,10,05,17,56,0.00
2008,10,05,17,57,0.00
2008,10,05,17,58,0.00
2008,10,05,17,59,0.00
2008,10,05,18,00,0.00
2008,10,05,18,01,0.00
2008,10,05,18,02,0.00
2008,10,05,18,03,0.00